Details From LFKB - Bastia Poretta
To LFKJ - Napoleon Bonaparte
Flight Number -
Tags generated
Created
Modified
Stats Distance 51 nm / 94 km
Max Altitude 400 ft / 122 m
Waypoints 3
Social Downloads 4
Likes 0
Share VATSIM

Download

Looking for another format? Having issues loading an existing format? Contact us
Advertisement - Login to hide

Notes

Basic altitude profile: - Ascent Rate: 2500ft/min - Ascent Speed: 250kts - Cruise Altitude: 35000ft - Cruise Speed: 420kts - Descent Rate: 1500ft/min - Descent Speed: 250kts

Route

LFKB BTA LFKJ

ID Type Via Altitude Latitude Longitude Leg Dist Tot Dist Heading (true) Name
O LFKB APT - 0 ft / 0 m 42.55251˚ 9.48371˚ - 0 nm - Bastia Poretta
BTA VOR - 400 ft / 122 m 42.57369˚ 9.47459˚ 1 nm 1 nm 342° / 342° BASTIA PORETTA VOR-DME
O LFKJ APT - 0 ft / 0 m 41.92289˚ 8.79959˚ 49 nm 50 nm 218° / 217° Napoleon Bonaparte

Altitude Profile

Advertisement - Login to hide

LFKB

Details ICAO LFKB (BIA)
Name Bastia Poretta
Region France
Timezone Europe/Paris (UTC+1.0)
Stats Elevation 25 ft / 8 m (AMSL)
Location 42.552508° 9.483709°
Runways 1
Magnetic Variation 2.485° E

METAR

LFKB 160730Z AUTO 23003KT CAVOK 08/M02 Q1003 NOSIG

Decode

TAF

TAF LFKB 160200Z 1603/1703 27015G25KT 9999 FEW045 SCT160 BECMG 1605/1607 24010KT BECMG 1612/1614 32015G25KT TEMPO 1617/1620 SHRA FEW020TCU BECMG 1620/1622 32010KT TX13/1612Z TN06/1703Z

Decode

Departure Runways

ID Width Length Bearing (true) Bearing (mag) Surface Threshold Offset Overrun Length
16 148 ft / 45 m 8,273 ft / 2,522 m 162.83° 160.34° Concrete 0 ft / 0 m 131 ft / 40 m
34 148 ft / 45 m 8,273 ft / 2,522 m 342.84° 340.35° Concrete 0 ft / 0 m 0 ft / 0 m

LFKJ

Details ICAO LFKJ (AJA)
Name Napoleon Bonaparte
Region France
Timezone Europe/Paris (UTC+1.0)
Stats Elevation 18 ft / 5 m (AMSL)
Location 41.922886° 8.799587°
Runways 2
Magnetic Variation 2.330° E

METAR

LFKJ 160730Z AUTO 27012KT 9999 SCT041 BKN052 BKN064 11/03 Q1006 TEMPO 28015G25KT RA

Decode

TAF

TAF LFKJ 160200Z 1603/1703 28010KT 9999 SCT035 BKN060 BKN080 TEMPO 1603/1612 RA PROB40 1608/1612 28015G25KT BECMG 1612/1614 34010KT BECMG 1619/1621 04006KT

Decode

Destination Runways

ID Width Length Bearing (true) Bearing (mag) Surface Threshold Offset Overrun Length
02 180 ft / 55 m 7,899 ft / 2,408 m 24.94° 22.61° Asphalt 0 ft / 0 m 164 ft / 50 m
10 98 ft / 30 m 3,447 ft / 1,051 m 94.35° 92.02° Concrete 0 ft / 0 m 164 ft / 50 m
20 180 ft / 55 m 7,899 ft / 2,408 m 204.95° 202.62° Asphalt 745 ft / 227 m 230 ft / 70 m
28 98 ft / 30 m 3,447 ft / 1,051 m 274.36° 272.03° Concrete 213 ft / 65 m 0 ft / 0 m

Approach Navaids

Runway Type Ident Frequency Range Bearing (true) Bearing (mag) Slope Elevation
02 Localiser AC 110.30 MHz 27 nm / 50 km 24.92° 22.59° - 18 ft / 5 m (AMSL)
02 Glidescope AC 110.30 MHz 27 nm / 50 km 24.92° 22.59° 3.00° 18 ft / 5 m (AMSL)
02 DME AC 110.30 MHz 27 nm / 50 km - - - 18 ft / 5 m (AMSL)

Popular Alternatives